EST,Max TemperatureF,Mean TemperatureF,Min TemperatureF,Max Dew PointF,MeanDew PointF,Min DewpointF,Max Humidity, Mean Humidity, Min Humidity, Max Sea Level PressureIn, Mean Sea Level PressureIn, Min Sea Level PressureIn, Max VisibilityMiles, Mean VisibilityMiles, Min VisibilityMiles, Max Wind SpeedMPH, Mean Wind SpeedMPH, Max Gust SpeedMPH,PrecipitationIn, CloudCover, Events, WindDirDegrees
2013-2-1,42,34,26,28,14,1,75,44,24,30.40,30.13,29.85,10,10,10,26,10,40,0.00,1,,270
2013-2-2,42,30,19,21,12,5,86,48,23,30.42,30.28,30.03,10,10,10,12,3,16,0.00,3,,200
2013-2-3,48,40,32,34,28,21,100,66,37,30.03,29.92,29.84,10,10,7,14,5,18,0.00,6,,278
2013-2-4,46,35,24,27,21,18,93,55,32,30.15,30.06,29.97,10,10,10,10,5,20,0.00,0,,218
2013-2-5,60,48,37,36,33,27,93,60,36,29.99,29.93,29.86,10,10,10,10,6,,0.00,4,,213
2013-2-6,59,44,30,39,35,30,100,76,39,30.34,30.14,29.95,10,10,7,12,2,17,0.00,1,,30
2013-2-7,51,40,30,45,36,28,100,82,54,30.39,30.29,30.09,10,8,2,14,5,20,0.00,2,,58
2013-2-8,53,48,42,46,42,30,100,88,57,30.07,29.82,29.72,10,8,2,18,12,28,0.00,5,,324
2013-2-9,50,39,28,32,24,16,86,59,27,30.38,30.20,29.95,10,10,10,18,8,25,0.00,0,,305
2013-2-10,53,37,21,36,25,18,100,65,24,30.51,30.41,30.30,10,10,10,12,2,,0.00,0,,151
2013-2-11,64,54,44,63,55,34,100,93,66,30.28,30.02,29.85,10,8,2,16,7,23,0.00,6,,203
2013-2-12,60,53,46,54,35,28,77,51,29,30.05,29.97,29.86,10,10,5,14,8,18,0.00,0,,261
2013-2-13,51,48,44,50,46,36,100,95,54,29.95,29.76,29.61,10,7,1,10,3,20,0.00,8,,263
2013-2-14,51,42,32,45,37,32,100,85,54,30.09,29.99,29.78,10,9,2,10,4,18,0.00,2,,301
2013-2-15,62,46,30,39,35,30,100,72,30,30.09,30.02,29.94,10,8,2,8,2,,0.00,0,,194
2013-2-16,44,38,33,37,35,32,100,91,70,29.97,29.88,29.79,10,7,1,16,6,22,0.00,7,,356
2013-2-17,35,30,26,32,17,9,93,62,35,30.26,30.04,29.84,10,10,10,23,10,30,0.00,2,,294
2013-2-18,48,32,17,25,15,9,93,49,23,30.43,30.34,30.27,10,10,10,9,4,16,0.00,0,,230
2013-2-19,57,44,30,54,40,25,94,78,60,30.28,30.02,29.81,10,10,4,15,8,25,0.00,3,,205
2013-2-20,50,42,33,41,21,12,87,48,24,30.14,30.02,29.90,10,10,10,18,8,24,0.00,0,,282
2013-2-21,48,36,24,23,20,18,86,54,32,30.30,30.20,30.13,10,10,10,13,3,17,0.00,0,,351
2013-2-22,46,40,35,41,29,19,100,67,46,30.37,30.29,30.17,10,9,2,13,4,17,0.00,6,,73
2013-2-23,44,42,39,45,42,39,100,100,100,30.16,29.93,29.81,10,6,2,9,4,,0.00,8,,324
2013-2-24,55,46,37,46,43,27,100,90,61,30.08,29.90,29.79,10,6,1,13,3,23,0.00,5,,311
2013-2-25,44,37,28,30,26,21,93,66,43,30.23,30.18,30.09,10,10,10,7,3,,0.00,0,,34
2013-2-26,64,46,28,64,46,27,100,95,81,30.20,29.91,29.56,10,8,2,20,5,29,0.00,6,,95
2013-2-27,60,50,39,61,45,37,100,79,42,29.73,29.67,29.57,10,10,10,14,7,21,0.00,2,,250
2013-2-28,51,43,35,41,32,25,100,65,35,29.80,29.71,29.67,10,10,10,21,6,30,0.00,4,,272